Regional Weather Roundup
Issued by NWS

Home | Current Version | Previous Version | Text Only | Print | Product List | Glossary On
Versions: 1 2 3 4 5 6 7 8 9 10 11 12 13 14 15 16 17 18 19 20 21 22 23 24 25 26 27 28 29 30 31 32 33 34 35 36 37 38 39 40 41 42 43 44 45 46 47 48 49 50
000
ASUS44 KFWD 210910
RWRTX
NORTH TEXAS HOURLY WEATHER ROUNDUP
NATIONAL WEATHER SERVICE FORT WORTH TX
400 AM CDT MON APR 21 2014

NOTE: "FAIR" INDICATES FEW OR NO CLOUDS BELOW 12,000 FEET WITH NO
SIGNIFICANT WEATHER AND/OR OBSTRUCTIONS TO VISIBILITY.

TXZ118-119-211000-
DALLAS/FORT WORTH METROPLEX

CITY           SKY/WX    TMP DP  RH WIND       PRES   REMARKS
DFW AIRPORT    MOCLDY    63  60  90 SE10      30.00F
DALLAS LOVE    MOCLDY    63  59  87 SE12      30.01S
FTW MEACHAM    CLOUDY    63  62  97 SE7       29.99F FOG
DAL-EXECUTIVE  CLOUDY    63  60  90 SE7       30.01S
FTW-ALLIANCE   CLOUDY    62  60  93 SE9       29.99S
FTW-NAS-JRB    CLOUDY    65  60  84 E7        30.04F
FTW-SPINKS     CLOUDY    63  61  94 SE6       30.02S FOG
ARLINGTON      CLOUDY    64  60  87 E8        30.00F
GRAND PRAIRIE  MOCLDY    61  61 100 SE5       30.04S
ADDISON        CLOUDY    64  64 100 SE10      30.02F
MESQUITE       CLOUDY    61  59  92 SE6       30.03R
LANCASTER      CLOUDY    61  58  91 CALM      30.04R
$$

TXZ091>094-102>105-117-120-121-131>134-211000-
NORTH CENTRAL TEXAS

CITY           SKY/WX    TMP DP  RH WIND       PRES   REMARKS
SHRMAN/DENISON CLOUDY    64  58  81 SE9       30.01S
GAINESVILLE    CLOUDY    61  59  94 CALM      30.04R
BOWIE          LGT RAIN  61  61  99 SE10G17   29.97F
BRIDGEPORT     CLOUDY    62  62  99 E3        30.02S FOG
DECATUR        CLOUDY    61  61 100 E6        30.02R FOG
DENTON         CLOUDY    62  61  96 SE7       30.00S
MCKINNEY       CLOUDY    63  61  93 SE9       30.01S
GREENVILLE     MOCLDY    61  59  94 S6        30.03S
ROCKWALL       CLOUDY    62  61  97 E7        30.02R
TERRELL        CLOUDY    62  61  96 E8        30.03F
WAXAHACHIE     CLOUDY    62  60  95 E5        30.03S FOG
CLEBURNE       CLOUDY    64  64 100 SE7       30.03S
GRANBURY       CLOUDY    65  62  91 SE7       30.01S
$$

TXZ083>090-098>101-113>116-127>130-139>142-154-155-211000-
WESTERN NORTH TEXAS

CITY           SKY/WX    TMP DP  RH WIND       PRES   REMARKS
WICHITA FALLS  CLOUDY    62  60  93 S10       29.95S
WF-KICKAPOO    CLOUDY    63  62  97 S8        29.97F
VERNON         MOCLDY    64  63  95 S12       29.93F
ABILENE        CLOUDY    66  61  84 S12G21    29.97F
ABILENE-DYESS  CLOUDY    65  61  86 S17       29.96S
BRECKENRIDGE   CLOUDY    68  64  89 S6        29.98R
GRAHAM         CLOUDY    64  62  94 SE6       29.97F FOG
MINERAL WELLS  MOCLDY    62  61  96 SE12      29.98S FOG
STEPHENVILLE   MOCLDY    62  58  86 S6        30.02F
COMANCHE       CLOUDY    64  63  96 S7        30.00S
BROWNWOOD      CLOUDY    64  64 100 S7        30.01S
COLEMAN        CLOUDY    64  62  94 SW6       30.01S
BRADY          MOCLDY    64  63  94 S9        30.01F
$$

TXZ143>147-156>162-174-175-211000-
CENTRAL TEXAS

CITY           SKY/WX    TMP DP  RH WIND       PRES   REMARKS
WACO           CLEAR     64  58  80 S14       30.02F
WACO-MCGREGOR  CLEAR     61  52  72 S12       30.04S
HILLSBORO      CLOUDY    66  57  73 S8        30.02S
CORSICANA      CLOUDY    67  57  70 S12       30.04F
MEXIA          CLEAR     62  56  81 S6        30.04S
HEARNE         CLEAR     64  61  90 SE7       30.06S
CAMERON        MOCLDY    64  61  88 SE5       30.05S
TEMPLE         PTCLDY    61  54  77 SE9       30.07S
KILLEEN        PTCLDY    57  55  94 S7        30.02F
KILLEEN-SKYLRK CLEAR    N/A N/A N/A SE7       30.01R
GATESVILLE     CLEAR     59  55  88 SE5       30.04F
HAMILTON       CLOUDY    63  60  90 SE10      30.02S
LAMPASAS       MOCLDY    60  58  93 SE6       30.01F
$$

TXZ095>097-106>112-122>126-135>138-148>153-164>167-211000-
EAST TEXAS

CITY           SKY/WX    TMP DP  RH WIND       PRES   REMARKS
PARIS          PTCLDY    63  55  77 S12       30.01S
SULPHUR SPRNGS MOCLDY    62  61  97 SE3       30.05S
CLARKSVILLE    MOCLDY    62  61  97 CALM      30.03F
MOUNT PLEASANT CLOUDY    62  61  97 CALM      30.06F
GILMER         PTCLDY    64  61  88 CALM      30.07F
MINEOLA        MOCLDY    63  63 100 SE3       30.05F FOG
TYLER          CLOUDY    67  55  65 E3        30.05F
LONGVIEW       CLOUDY    62  57  83 NW3       30.06S
MARSHALL       MOCLDY    61  57  88 CALM      30.09R
ATHENS         CLOUDY    64  54  68 S5        30.04S
PALESTINE      CLOUDY    67  55  66 CALM      30.07F
JACKSONVILLE   CLOUDY    64  52  66 S7        30.08S
HENDERSON      PTCLDY    63  53  69 CALM      30.07F
NACOGDOCHES    PTCLDY    59  54  82 CALM      30.08F
LUFKIN         CLOUDY    64  54  69 SE3       30.08S
$$

SUPPLEMENTAL OBSERVATIONS (CENTRAL)

CITY           SKY/WX    TMP DP  RH WIND       PRES   REMARKS
CADDO GRASSLND   N/A     63  57  82 S6          N/A
PAT MAYSE LAKE   N/A     63  59  88 S5          N/A
MCGREGOR         N/A     63  57  82 S14         N/A
$$

SUPPLEMENTAL OBSERVATIONS (WEST)

CITY           SKY/WX    TMP DP  RH WIND       PRES   REMARKS
MILLERS CREEK    N/A     66  63  88 S8          N/A
LBJ GRASSLAND    N/A     61  59  94 NE2         N/A
GRANBURY         N/A     64  61  88 SE8         N/A
HAMBY            N/A     66  61  82 S15         N/A
IVIE RESERVOIR   N/A     63  59  88 CALM        N/A
COLORADO BEND    N/A     63  57  82 S6          N/A
$$

SUPPLEMENTAL OBSERVATIONS (EAST)

CITY           SKY/WX    TMP DP  RH WIND       PRES   REMARKS
TEXARKANA        N/A     64  61  88 NW2         N/A
LINDEN           N/A     64  59  82 VRB1        N/A
N SABINE NF      N/A     61  54  77 MISG        N/A
$$

SUPPLEMENTAL OBSERVATIONS ARE A COLLECTION OF AUTOMATED INSTRUMENTS
THAT ARE MAINTAINED BY A VARIETY OF FEDERAL AND STATE AGENCIES.
CERTAIN ELEMENTS...SUCH AS HUMIDITY VALUES AND SUSTAINED WIND
SPEEDS...MAY BE APPROXIMATED.




USA.gov is the U.S. government's official web portal to all federal, state and local government web resources and services.